KY4JDC Weather Reports


Display with metric or nautical units.
time (UTC)temp
F
wind
direction
speed
MPH
gust
MPH
rain 1hr
in
rain 24hr
in
rain mn
in
humidity
%
barometer
mb
20260904103744 77 159 0.0 0.0 0.00 0.00 0.00 87 1017.3
20260904103243 77 159 0.0 0.0 0.00 0.00 0.00 86 1017.3
20260904102739 77 159 0.0 0.0 0.00 0.00 0.00 86 1017.3
20260904102235 77 158 0.0 0.0 0.00 0.00 0.00 85 1017.1
20260904101731 77 159 0.0 0.0 0.00 0.00 0.00 85 1017.2
20260904101227 77 159 0.0 0.0 0.00 0.00 0.00 84 1017.1
20260904100722 78 159 0.0 0.0 0.00 0.00 0.00 83 1017.2
20260904100218 78 159 0.0 0.0 0.00 0.00 0.00 82 1017.2
20260904095717 78 159 0.0 0.0 0.00 0.00 0.00 82 1017.1
20260904095212 78 159 0.0 0.0 0.00 0.00 0.00 82 1017.2
20260904094707 78 159 0.0 0.0 0.00 0.00 0.00 82 1017.1
20260904094202 78 159 0.0 0.0 0.00 0.00 0.00 82 1017.1
20260904093659 78 159 0.0 0.0 0.00 0.00 0.00 81 1016.9
20260904093158 78 159 0.0 0.0 0.00 0.00 0.00 82 1017.0
20260904092655 78 159 0.0 0.0 0.00 0.00 0.00 82 1016.9
20260904092150 79 159 0.0 0.0 0.00 0.00 0.00 81 1016.8
20260904091646 78 159 0.0 0.0 0.00 0.00 0.00 80 1016.9
20260904091146 78 159 0.0 0.0 0.00 0.00 0.00 80 1016.9
20260904090642 78 159 0.0 0.0 0.00 0.00 0.00 81 1016.8
20260904090137 78 159 0.0 0.0 0.00 0.00 0.00 81 1016.9
20260904085632 78 159 0.0 0.0 0.00 0.00 0.00 82 1016.8
20260904085132 78 159 0.0 0.0 0.00 0.00 0.00 82 1016.5
20260904084627 78 159 0.0 0.0 0.00 0.00 0.00 82 1016.7
20260904084124 78 159 0.0 0.0 0.00 0.00 0.00 81 1016.6
20260904083620 79 159 0.0 0.0 0.00 0.00 0.00 81 1016.8
20260904083115 79 159 0.0 0.0 0.00 0.00 0.00 80 1016.5
20260904082610 79 159 0.0 0.0 0.00 0.00 0.00 80 1016.6
20260904082105 80 159 0.0 0.0 0.00 0.00 0.00 78 1016.7
20260904081601 80 159 0.0 0.0 0.00 0.00 0.00 77 1016.5
20260904081056 80 159 0.0 0.0 0.00 0.00 0.00 76 1016.8
20260904080551 80 159 0.0 0.0 0.00 0.00 0.00 76 1016.6
20260904080048 80 159 0.0 0.0 0.00 0.00 0.00 76 1016.5
20260904075544 80 159 0.0 0.0 0.00 0.00 0.00 76 1016.7
20260904075043 80 159 0.0 0.0 0.00 0.00 0.00 76 1016.5
20260904074543 80 159 0.0 0.0 0.00 0.00 0.00 77 1016.7
20260904074038 80 159 0.0 0.0 0.00 0.00 0.00 77 1016.5
20260904073533 81 159 0.0 0.0 0.00 0.00 0.00 76 1016.4
20260904073029 80 159 0.0 0.0 0.00 0.00 0.00 76 1016.7
20260904072525 80 159 0.0 0.0 0.00 0.00 0.00 76 1016.7
20260904072020 80 159 0.0 0.0 0.00 0.00 0.00 77 1016.2
20260904071515 80 159 0.0 0.0 0.00 0.00 0.00 77 1016.4
20260904071010 80 159 0.0 0.0 0.00 0.00 0.00 75 1016.6
20260904070509 80 152 0.0 0.0 0.00 0.00 0.00 77 1016.5
20260904070003 80 152 0.0 0.0 0.00 0.00 0.00 77 1016.5
20260904065459 81 152 0.0 0.0 0.00 0.00 0.00 77 1016.4
20260904064955 81 152 0.0 0.0 0.00 0.00 0.00 77 1016.6
20260904064451 81 152 0.0 0.0 0.00 0.00 0.00 75 1016.6
20260904063951 81 152 0.0 0.0 0.00 0.00 0.00 75 1016.7
20260904063448 81 152 0.0 1.0 0.00 0.00 0.00 75 1016.7
20260904062942 81 152 0.0 0.0 0.00 0.00 0.00 74 1016.8
20260904062438 82 152 0.0 0.0 0.00 0.00 0.00 75 1016.8
20260904061934 82 152 0.0 0.0 0.00 0.00 0.00 73 1016.7
20260904061430 82 152 0.0 0.0 0.00 0.00 0.00 72 1016.7
20260904060926 82 152 0.0 0.0 0.00 0.00 0.00 73 1016.9
20260904060422 82 152 0.0 0.0 0.00 0.00 0.00 72 1017.0
20260904055917 82 152 0.0 0.0 0.00 0.00 0.00 72 1016.9
20260904055413 82 152 1.0 1.0 0.00 0.00 0.00 73 1016.8
20260904054908 82 136 0.0 0.0 0.00 0.00 0.00 74 1016.8
20260904054404 82 136 0.0 0.0 0.00 0.00 0.00 73 1016.9
20260904053859 83 136 0.0 0.0 0.00 0.00 0.00 72 1016.7
20260904053358 83 136 0.0 0.0 0.00 0.00 0.00 72 1016.9
20260904052854 83 136 0.0 0.0 0.00 0.00 0.00 71 1016.9
20260904052351 83 136 0.0 0.0 0.00 0.00 0.00 71 1016.9
20260904051847 84 136 0.0 0.0 0.00 0.00 0.00 70 1017.0
20260904051343 84 136 0.0 0.0 0.00 0.00 0.00 69 1016.9
20260904050843 84 136 0.0 1.0 0.00 0.00 0.00 69 1017.1
20260904050340 84 128 0.0 1.0 0.00 0.00 0.00 69 1017.0
20260904045839 84 128 0.0 1.0 0.00 0.00 0.00 69 1017.1
20260904045335 84 127 0.0 1.0 0.00 0.00 0.00 69 1017.1
20260904044834 84 127 0.0 1.0 0.00 0.00 0.00 69 1017.0
20260904044331 84 134 1.0 2.0 0.00 0.00 0.00 69 1016.9
20260904043827 84 134 1.0 1.0 0.00 0.00 0.00 70 1017.1
20260904043323 84 134 1.0 2.0 0.00 0.00 0.00 70 1017.3
20260904042818 84 134 1.0 1.0 0.00 0.00 0.00 71 1017.1
20260904042314 84 134 1.0 1.0 0.00 0.00 0.00 72 1017.2
20260904041814 84 134 1.0 1.0 0.00 0.00 0.00 72 1017.0
20260904041310 84 134 1.0 1.0 0.00 0.00 0.00 72 1016.9
20260904040806 84 134 0.0 0.0 0.00 0.00 0.00 72 1017.1
20260904040301 84 134 0.0 0.0 0.00 0.00 0.00 72 1017.1
20260904035757 84 134 0.0 0.0 0.00 0.00 0.00 72 1017.2
20260904035253 84 134 0.0 1.0 0.00 0.00 0.00 72 1017.1
20260904034751 84 134 0.0 0.0 0.00 0.00 0.00 73 1017.2
20260904034247 84 134 1.0 0.0 0.00 0.00 0.00 73 1017.1
20260904033743 84 134 0.0 0.0 0.00 0.00 0.00 72 1017.3
20260904033240 84 134 0.0 0.0 0.00 0.00 0.00 72 1017.2
20260904032735 84 134 0.0 0.0 0.00 0.00 0.00 71 1017.3
20260904032235 85 134 0.0 0.0 0.00 0.00 0.00 71 1017.2
20260904031729 85 134 0.0 0.0 0.00 0.00 0.00 70 1017.2
20260904031225 85 134 0.0 0.0 0.00 0.00 0.00 69 1017.2
20260904030720 86 134 1.0 1.0 0.00 0.00 0.00 68 1017.2
20260904030215 86 134 0.0 0.0 0.00 0.00 0.00 67 1017.4
20260904025712 86 134 1.0 1.0 0.00 0.00 0.00 67 1017.2
20260904025207 86 134 1.0 1.0 0.00 0.00 0.00 66 1017.3
20260904024702 87 133 1.0 1.0 0.00 0.00 0.00 65 1017.2
20260904024157 87 133 1.0 1.0 0.00 0.00 0.00 65 1017.1
20260904023653 87 134 0.0 2.0 0.00 0.00 0.00 65 1017.1
20260904023149 87 125 1.0 2.0 0.00 0.00 0.00 64 1017.0
20260904022649 87 132 1.0 2.0 0.00 0.00 0.00 64 1016.9
20260904022146 87 127 1.0 1.0 0.00 0.00 0.00 65 1016.9
20260904021642 87 127 1.0 2.0 0.00 0.00 0.00 65 1016.9
20260904021136 87 130 1.0 1.0 0.00 0.00 0.00 64 1017.0
20260904020632 87 135 1.0 3.0 0.00 0.00 0.00 65 1016.9
20260904020121 87 128 2.0 2.0 0.00 0.00 0.00 66 1016.8
20260904015621 87 129 2.0 3.0 0.00 0.00 0.00 66 1016.9
20260904015120 87 126 1.0 2.0 0.00 0.00 0.00 67 1016.9
20260904014619 87 134 1.0 3.0 0.00 0.00 0.00 67 1016.7
20260904014114 88 129 1.0 1.0 0.00 0.00 0.00 68 1016.7
20260904013611 87 134 2.0 2.0 0.00 0.00 0.00 68 1016.7
20260904013107 88 131 0.0 1.0 0.00 0.00 0.00 69 1016.9
20260904012602 88 131 0.0 1.0 0.00 0.00 0.00 68 1016.8
20260904012102 88 131 1.0 2.0 0.00 0.00 0.00 68 1016.7
20260904011601 88 138 0.0 0.0 0.00 0.00 0.00 68 1016.6
20260904011056 88 138 1.0 1.0 0.00 0.00 0.00 68 1016.7
20260904010552 88 139 1.0 1.0 0.00 0.00 0.00 68 1016.6
20260904010050 88 139 0.0 1.0 0.00 0.00 0.00 68 1016.5
20260904005548 88 142 1.0 2.0 0.00 0.00 0.00 68 1016.5
20260904005044 88 142 0.0 0.0 0.00 0.00 0.00 68 1016.3
20260904004540 89 142 0.0 0.0 0.00 0.00 0.00 68 1016.4
20260904004040 89 142 0.0 0.0 0.00 0.00 0.00 67 1016.4
20260904003536 89 142 0.0 0.0 0.00 0.00 0.00 67 1016.5
20260904003031 89 142 0.0 0.0 0.00 0.00 0.00 66 1016.5
20260904002527 90 142 0.0 0.0 0.00 0.00 0.00 64 1016.4
20260904002026 90 142 0.0 0.0 0.00 0.00 0.00 63 1016.4
20260904001522 91 142 0.0 0.0 0.00 0.00 0.00 62 1016.4
20260904001021 91 142 1.0 2.0 0.00 0.00 0.00 61 1016.4
20260904000521 91 142 0.0 0.0 0.00 0.00 0.00 61 1016.4
20260904000017 91 142 0.0 0.0 0.00 0.00 0.00 60 1016.3
20260903235512 92 142 0.0 0.0 0.00 0.00 0.00 60 1016.4
20260903235007 92 142 0.0 0.0 0.00 0.00 0.00 59 1016.1
20260903234503 92 142 1.0 1.0 0.00 0.00 0.00 58 1016.3
20260903233958 93 143 0.0 1.0 0.00 0.00 0.00 57 1016.0
20260903233454 93 138 1.0 1.0 0.00 0.00 0.00 57 1016.1
20260903232949 93 138 1.0 1.0 0.00 0.00 0.00 56 1016.1
20260903232445 94 137 0.0 0.0 0.00 0.00 0.00 55 1016.1
20260903231944 94 137 0.0 1.0 0.00 0.00 0.00 54 1016.1
20260903231440 94 123 1.0 2.0 0.00 0.00 0.00 53 1016.1
20260903230939 94 135 1.0 2.0 0.00 0.00 0.00 52 1016.0
20260903230435 95 129 1.0 2.0 0.00 0.00 0.00 51 1015.9
20260903225932 95 136 2.0 2.0 0.00 0.00 0.00 47 1015.9
20260903225427 95 135 1.0 1.0 0.00 0.00 0.00 48 1015.9
20260903224923 95 143 0.0 0.0 0.00 0.00 0.00 47 1016.0
20260903224419 95 143 0.0 1.0 0.00 0.00 0.00 48 1016.0
20260903223915 95 143 1.0 1.0 0.00 0.00 0.00 49 1016.0
20260903223414 95 140 1.0 1.0 0.00 0.00 0.00 47 1016.0
20260903222913 95 146 0.0 1.0 0.00 0.00 0.00 48 1016.0
20260903222409 94 146 0.0 0.0 0.00 0.00 0.00 52 1016.1
20260903221903 94 145 0.0 1.0 0.00 0.00 0.00 50 1016.1
20260903221402 94 138 1.0 1.0 0.00 0.00 0.00 49 1015.9
20260903220900 95 131 1.0 1.0 0.00 0.00 0.00 48 1016.1
20260903220354 95 148 0.0 1.0 0.00 0.00 0.00 48 1015.9
20260903215852 95 137 2.0 2.0 0.00 0.00 0.00 47 1015.9
20260903215349 95 143 2.0 2.0 0.00 0.00 0.00 47 1016.1
20260903214847 95 139 0.0 2.0 0.00 0.00 0.00 48 1015.9
20260903214343 96 149 1.0 2.0 0.00 0.00 0.00 45 1016.2
20260903213842 96 137 0.0 2.0 0.00 0.00 0.00 45 1016.0
20260903213338 97 178 0.0 1.0 0.00 0.00 0.00 45 1016.3
20260903212834 97 291 2.0 2.0 0.00 0.00 0.00 43 1016.0
20260903212330 97 141 1.0 1.0 0.00 0.00 0.00 44 1016.3
20260903211829 97 117 2.0 3.0 0.00 0.00 0.00 43 1016.2
20260903211326 97 174 0.0 1.0 0.00 0.00 0.00 42 1016.3
20260903210821 97 278 1.0 2.0 0.00 0.00 0.00 44 1016.4
20260903210316 98 326 2.0 3.0 0.00 0.00 0.00 42 1016.4
20260903205816 97 285 3.0 4.0 0.00 0.00 0.00 42 1016.6
20260903205316 98 350 2.0 3.0 0.00 0.00 0.00 42 1016.5
20260903204811 98 282 0.0 1.0 0.00 0.00 0.00 42 1016.6
20260903204307 98 274 0.0 2.0 0.00 0.00 0.00 44 1016.5
20260903203803 97 249 0.0 2.0 0.00 0.00 0.00 44 1016.5
20260903203258 97 182 1.0 2.0 0.00 0.00 0.00 45 1016.6
20260903202756 97 136 2.0 2.0 0.00 0.00 0.00 44 1016.7
20260903202254 97 129 3.0 4.0 0.00 0.00 0.00 43 1016.6
20260903201752 97 298 2.0 2.0 0.00 0.00 0.00 43 1016.8
20260903201248 97 149 3.0 3.0 0.00 0.00 0.00 43 1016.9
20260903200747 97 138 2.0 3.0 0.00 0.00 0.00 44 1016.8
20260903200243 97 135 1.0 2.0 0.00 0.00 0.00 45 1016.8
20260903195737 96 116 1.0 2.0 0.00 0.00 0.00 45 1017.0
20260903195234 97 142 2.0 3.0 0.00 0.00 0.00 44 1016.9
20260903194733 97 145 2.0 4.0 0.00 0.00 0.00 44 1017.1
20260903194230 97 137 2.0 4.0 0.00 0.00 0.00 45 1017.3
20260903193730 97 109 3.0 4.0 0.00 0.00 0.00 45 1017.1
20260903193225 97 155 1.0 3.0 0.00 0.00 0.00 43 1017.2
20260903192721 97 159 5.0 6.0 0.00 0.00 0.00 43 1017.2
20260903192217 97 110 1.0 2.0 0.00 0.00 0.00 43 1017.4
20260903191713 98 110 1.0 2.0 0.00 0.00 0.00 44 1017.0
20260903191208 98 133 0.0 2.0 0.00 0.00 0.00 45 1017.1
20260903190702 97 15 1.0 2.0 0.00 0.00 0.00 43 1017.4
20260903190202 98 219 2.0 2.0 0.00 0.00 0.00 43 1017.5
20260903185657 98 138 0.0 4.0 0.00 0.00 0.00 42 1017.6
20260903185152 98 127 2.0 3.0 0.00 0.00 0.00 42 1017.6
20260903184649 98 31 1.0 2.0 0.00 0.00 0.00 43 1017.6
20260903184144 97 350 2.0 3.0 0.00 0.00 0.00 43 1017.7
20260903183643 97 219 2.0 2.0 0.00 0.00 0.00 43 1017.7
20260903183138 97 132 2.0 3.0 0.00 0.00 0.00 42 1017.8
20260903182637 98 137 2.0 4.0 0.00 0.00 0.00 43 1017.6
20260903182133 98 236 1.0 3.0 0.00 0.00 0.00 44 1017.8
20260903181631 98 107 2.0 3.0 0.00 0.00 0.00 43 1017.8
20260903181126 98 296 4.0 6.0 0.00 0.00 0.00 42 1017.8
20260903180622 98 88 0.0 1.0 0.00 0.00 0.00 43 1017.8
20260903180116 98 266 3.0 3.0 0.00 0.00 0.00 42 1018.1
20260903175615 98 139 1.0 3.0 0.00 0.00 0.00 43 1018.1
20260903175114 98 191 0.0 1.0 0.00 0.00 0.00 44 1017.9
20260903174609 98 284 3.0 3.0 0.00 0.00 0.00 41 1018.2
20260903174104 97 135 2.0 3.0 0.00 0.00 0.00 43 1018.3
20260903173559 97 134 4.0 6.0 0.00 0.00 0.00 40 1018.3
20260903173056 97 292 2.0 3.0 0.00 0.00 0.00 43 1018.4
20260903172550 97 220 5.0 8.0 0.00 0.00 0.00 41 1018.3
20260903172046 97 239 2.0 6.0 0.00 0.00 0.00 42 1018.4
20260903171546 97 139 1.0 2.0 0.00 0.00 0.00 45 1018.4
20260903171041 96 138 1.0 3.0 0.00 0.00 0.00 46 1018.3
20260903170540 96 117 1.0 3.0 0.00 0.00 0.00 44 1018.5
20260903170036 97 131 4.0 4.0 0.00 0.00 0.00 45 1018.5
20260903165533 97 357 1.0 4.0 0.00 0.00 0.00 47 1018.5
20260903165029 96 182 1.0 3.0 0.00 0.00 0.00 46 1018.4
20260903164529 96 90 1.0 3.0 0.00 0.00 0.00 48 1018.5
20260903164024 97 183 1.0 2.0 0.00 0.00 0.00 50 1018.7
20260903163520 96 167 1.0 1.0 0.00 0.00 0.00 50 1018.7
20260903163015 96 131 1.0 2.0 0.00 0.00 0.00 51 1018.6
20260903162512 97 117 0.0 0.0 0.00 0.00 0.00 51 1018.7
20260903162007 95 126 0.0 1.0 0.00 0.00 0.00 50 1018.8
20260903161503 95 238 1.0 1.0 0.00 0.00 0.00 51 1018.9
20260903160959 95 128 1.0 3.0 0.00 0.00 0.00 54 1018.9
20260903160457 95 138 2.0 3.0 0.00 0.00 0.00 52 1019.0
20260903155957 95 118 2.0 3.0 0.00 0.00 0.00 53 1019.0
20260903155456 94 219 1.0 1.0 0.00 0.00 0.00 54 1019.0
20260903154953 94 143 1.0 1.0 0.00 0.00 0.00 55 1019.0
20260903154448 94 258 2.0 2.0 0.00 0.00 0.00 56 1019.0
20260903153944 93 122 0.0 1.0 0.00 0.00 0.00 57 1019.2
20260903153439 93 167 3.0 3.0 0.00 0.00 0.00 55 1019.0
20260903152935 93 136 1.0 1.0 0.00 0.00 0.00 56 1019.0
20260903152431 92 136 2.0 3.0 0.00 0.00 0.00 57 1019.1
20260903151927 92 149 2.0 3.0 0.00 0.00 0.00 56 1019.0
20260903151421 92 138 1.0 2.0 0.00 0.00 0.00 57 1019.1
20260903150916 91 298 2.0 2.0 0.00 0.00 0.00 57 1018.9
20260903150410 91 280 2.0 2.0 0.00 0.00 0.00 57 1019.0
20260903145905 91 339 1.0 2.0 0.00 0.00 0.00 59 1018.9
20260903145401 90 167 1.0 1.0 0.00 0.00 0.00 61 1018.9
20260903144859 89 129 0.0 1.0 0.00 0.00 0.00 63 1018.8
20260903144354 88 298 2.0 2.0 0.00 0.00 0.00 62 1019.0
20260903143850 88 24 0.0 0.0 0.00 0.00 0.00 64 1019.0
20260903143347 87 181 1.0 2.0 0.00 0.00 0.00 66 1018.9
20260903142847 87 280 0.0 1.0 0.00 0.00 0.00 66 1019.0
20260903142343 87 169 1.0 1.0 0.00 0.00 0.00 66 1019.1
20260903141839 86 300 1.0 3.0 0.00 0.00 0.00 66 1019.2
20260903141336 86 279 2.0 3.0 0.00 0.00 0.00 66 1019.1
20260903140836 85 268 1.0 2.0 0.00 0.00 0.00 68 1019.2
20260903140331 85 286 3.0 3.0 0.00 0.00 0.00 69 1019.1
20260903135827 85 28 0.0 2.0 0.00 0.00 0.00 70 1019.1
20260903135322 84 287 0.0 3.0 0.00 0.00 0.00 71 1019.0
20260903134820 83 155 0.0 1.0 0.00 0.00 0.00 72 1019.1
20260903134316 83 139 0.0 0.0 0.00 0.00 0.00 73 1019.1
20260903133814 83 137 2.0 3.0 0.00 0.00 0.00 72 1018.9
20260903133310 83 141 2.0 3.0 0.00 0.00 0.00 72 1019.3
20260903132810 82 147 0.0 0.0 0.00 0.00 0.00 73 1019.2
20260903132306 82 139 1.0 1.0 0.00 0.00 0.00 74 1019.1
20260903131801 82 91 2.0 2.0 0.00 0.00 0.00 74 1019.0
20260903131300 82 160 2.0 3.0 0.00 0.00 0.00 74 1019.3
20260903130754 81 138 0.0 1.0 0.00 0.00 0.00 74 1019.1
20260903130249 81 128 2.0 4.0 0.00 0.00 0.00 74 1019.3
20260903125748 81 128 1.0 2.0 0.00 0.00 0.00 75 1019.1
20260903125243 81 173 1.0 3.0 0.00 0.00 0.00 75 1019.1
20260903124742 80 144 1.0 1.0 0.00 0.00 0.00 75 1019.2
20260903124238 80 147 2.0 2.0 0.00 0.00 0.00 75 1019.2
20260903123736 80 158 0.0 1.0 0.00 0.00 0.00 76 1019.3
20260903123236 80 137 0.0 1.0 0.00 0.00 0.00 76 1019.3
20260903122735 79 137 2.0 2.0 0.00 0.00 0.00 76 1019.1
20260903122230 79 193 0.0 1.0 0.00 0.00 0.00 77 1019.2
20260903121728 79 165 0.0 0.0 0.00 0.00 0.00 78 1018.9
20260903121224 78 163 0.0 1.0 0.00 0.00 0.00 79 1018.8
20260903120724 78 171 0.0 0.0 0.00 0.00 0.00 80 1019.2
20260903120218 78 174 1.0 1.0 0.00 0.00 0.00 79 1018.7
20260903115717 78 177 0.0 0.0 0.00 0.00 0.00 80 1019.0
20260903115213 78 177 0.0 0.0 0.00 0.00 0.00 80 1018.8
20260903114712 78 177 0.0 0.0 0.00 0.00 0.00 80 1019.0
20260903114209 78 177 0.0 0.0 0.00 0.00 0.00 81 1018.9
20260903113709 78 177 0.0 0.0 0.00 0.00 0.00 80 1018.8
20260903113205 78 178 0.0 0.0 0.00 0.00 0.00 81 1018.8
20260903112701 78 178 0.0 0.0 0.00 0.00 0.00 80 1018.6
20260903112156 78 178 0.0 0.0 0.00 0.00 0.00 80 1018.5
20260903111654 78 178 0.0 0.0 0.00 0.00 0.00 80 1018.6
20260903111150 78 166 0.0 0.0 0.00 0.00 0.00 80 1018.7
20260903110647 78 166 0.0 0.0 0.00 0.00 0.00 80 1018.7
20260903110142 78 166 0.0 0.0 0.00 0.00 0.00 80 1018.7
20260903105636 78 166 0.0 0.0 0.00 0.00 0.00 80 1018.5
20260903105132 78 166 0.0 0.0 0.00 0.00 0.00 79 1018.6
20260903104631 78 166 0.0 0.0 0.00 0.00 0.00 79 1018.6
20260903104127 78 166 0.0 0.0 0.00 0.00 0.00 79 1018.6